sat.trackr.live / text

‹ back to catalog

EXACTVIEW-1 (ADS-1B)

NORAD 38709 · 2012-039C

PAYLOAD ACTIVE UNKNOWN

§ Identity

Operator
Country
CA
Launch date
2012-07-22
Launch site
TYMSC
Launch vehicle
Mass (kg)
RCS (m²)
0.55

Purposes: earth_obs

External: N2YO · Heavens-Above · Gunter

§ Orbital elements

Epoch: 2026-09-19T07:53:40.169760Z

Period
101.05 min
Inclination
98.9876°
Eccentricity
0.0009866
Mean motion
14.25006785 rev/d
Perigee alt
801.4 km
Apogee alt
815.6 km
Semi-major
7,186.6 km
B*
4.9834e-5
RAAN
21.8916°
Arg perigee
259.2150°
Mean anomaly
100.7918°
Rev number
73,611

§ Raw data

EXACTVIEW-1 (ADS-1B)1 38709U 12039C   26262.32893715  .00000070  00000+0  49834-4 0  99962 38709  98.9876  21.8916 0009866 259.2150 100.7918 14.25006785736118

JSON: /api/v1/satellites/38709 · /tle

For live sub-satellite position, see the globe view (requires WebGL).

§ Visibility from observer

Set your observer location to see the next 7 days of passes ≥ 10°. The values pass through the URL so the page stays shareable.

No JS? Fill the form by hand. The geolocation button needs JavaScript.